Appleton, MN

11:58 AM CDT on October 22, 2019 (GMT -0500)
Appleton Municipal

Weather History for KAQP - September, 2019

Change the Weather History Date:

Friday, September 20, 2019

  Actual Average Record
Temperature  
Mean Temperature 76 °F -  
Max Temperature 87 °F 68 °F 87 °F (2019)
Min Temperature 66 °F 43 °F 30 °F (2006)
Cooling Degree Days 12    
Growing Degree Days 26 (Base 50)    
Moisture  
Dew Point 66 °F    
Average Humidity 71    
Maximum Humidity 88    
Minimum Humidity 49    
Precipitation  
Precipitation 0.00 in - - ()
Sea Level Pressure  
Sea Level Pressure 29.89 in    
Wind  
Wind Speed 6 mph (SSE)    
Max Wind Speed 14 mph    
Max Gust Speed 23 mph    
Visibility 10 miles    
Events      
Averages and records for this station are not official NWS values.
T = Trace of Precipitation, MM = Missing Value Source: NWS Daily Summary

Daily Weather History Graph

Daily Weather History Graph

Search for Another Location

Airport or City:

Astronomy

Sep. 20, 2019 Rise Set
Actual Time 7:08 AM CDT 7:25 PM CDT
Civil Twilight 6:38 AM CDT 7:55 PM CDT
Nautical Twilight 6:04 AM CDT 8:29 PM CDT
Astronomical Twilight 5:28 AM CDT 9:05 PM CDT
Moon 10:59 PM CDT (9/20) 1:30 PM CDT (9/20)
Length of Visible Light 13h 16m
Length of Day
12h 17m
Waning Gibbous, 65% of the Moon is Illuminated
Sep 20
Waning Gibbous
Sep 21
Last Quarter
Sep 28
New
Oct 5
First Quarter
Oct 13
Full

Hourly Weather History & Observations

Time (CDT) Temp. Heat Index Dew Point Humidity Pressure Visibility Wind Dir Wind Speed Gust Speed Precip Events Conditions
12:11 AM 69.8 °F - 60.8 °F 73% 29.98 in 10.0 mi SE 5.8 mph - N/A   Clear
12:30 AM 69.8 °F - 62.6 °F 78% 29.99 in 10.0 mi Calm Calm - N/A   Clear
12:51 AM 68.0 °F - 62.6 °F 83% 29.98 in 10.0 mi Calm Calm - N/A   Clear
1:10 AM 68.0 °F - 62.6 °F 83% 29.98 in 10.0 mi Calm Calm - N/A   Clear
1:30 AM 68.0 °F - 62.6 °F 83% 29.99 in 10.0 mi Calm Calm - N/A   Clear
1:50 AM 68.0 °F - 62.6 °F 83% 29.98 in 10.0 mi ESE 4.6 mph - N/A   Clear
2:11 AM 68.0 °F - 62.6 °F 83% 29.99 in 10.0 mi Calm Calm - N/A   Scattered Clouds
2:31 AM 68.0 °F - 62.6 °F 83% 29.98 in 10.0 mi SE 10.4 mph - N/A   Mostly Cloudy
2:51 AM 68.0 °F - 62.6 °F 83% 29.98 in 10.0 mi Calm Calm - N/A   Scattered Clouds
3:11 AM 66.2 °F - 62.6 °F 88% 29.97 in 10.0 mi Calm Calm - N/A   Clear
3:31 AM 66.2 °F - 62.6 °F 88% 29.97 in 10.0 mi Calm Calm - N/A   Clear
3:51 AM 66.2 °F - 62.6 °F 88% 29.96 in 10.0 mi Calm Calm - N/A   Clear
4:10 AM 68.0 °F - 62.6 °F 83% 29.96 in 10.0 mi ESE 3.5 mph - N/A   Clear
4:31 AM 68.0 °F - 62.6 °F 83% 29.95 in 10.0 mi Calm Calm - N/A   Clear
4:51 AM 68.0 °F - 62.6 °F 83% 29.95 in 10.0 mi ESE 3.5 mph - N/A   Clear
5:11 AM 69.8 °F - 64.4 °F 83% 29.95 in 10.0 mi Calm Calm - N/A   Mostly Cloudy
5:31 AM 69.8 °F - 64.4 °F 83% 29.94 in 10.0 mi ESE 9.2 mph - N/A   Scattered Clouds
5:51 AM 69.8 °F - 64.4 °F 83% 29.94 in 10.0 mi SE 9.2 mph - N/A   Clear
6:31 AM 69.8 °F - 64.4 °F 83% 29.93 in 10.0 mi SE 9.2 mph - N/A   Clear
6:51 AM 69.8 °F - 64.4 °F 83% 29.94 in 10.0 mi SE 9.2 mph - N/A   Clear
7:11 AM 69.8 °F - 64.4 °F 83% 29.94 in 10.0 mi SE 10.4 mph - N/A   Clear
7:31 AM 69.8 °F - 64.4 °F 83% 29.94 in 10.0 mi SE 11.5 mph - N/A   Clear
7:51 AM 69.8 °F - 66.2 °F 88% 29.93 in 10.0 mi SE 11.5 mph - N/A   Clear
8:11 AM 69.8 °F - 66.2 °F 88% 29.93 in 10.0 mi SE 10.4 mph - N/A   Scattered Clouds
8:30 AM 71.6 °F - 66.2 °F 83% 29.94 in 10.0 mi SE 11.5 mph 16.1 mph N/A   Scattered Clouds
8:50 AM 71.6 °F - 66.2 °F 83% 29.94 in 10.0 mi SE 10.4 mph 17.3 mph N/A   Mostly Cloudy
9:11 AM 73.4 °F - 68.0 °F 83% 29.94 in 10.0 mi SE 11.5 mph 18.4 mph N/A   Mostly Cloudy
9:31 AM 73.4 °F - 68.0 °F 83% 29.94 in 10.0 mi SSE 13.8 mph 20.7 mph N/A   Mostly Cloudy
9:51 AM 75.2 °F - 68.0 °F 78% 29.93 in 10.0 mi SSE 12.7 mph 19.6 mph N/A   Scattered Clouds
10:11 AM 75.2 °F - 69.8 °F 83% 29.93 in 10.0 mi SSE 11.5 mph 16.1 mph N/A   Clear
10:31 AM 77.0 °F - 69.8 °F 78% 29.92 in 10.0 mi SSE 6.9 mph - N/A   Clear
10:51 AM 78.8 °F - 69.8 °F 74% 29.91 in 7.0 mi South 8.1 mph 16.1 mph N/A   Clear
11:10 AM 78.8 °F - 69.8 °F 74% 29.91 in 10.0 mi SSE 9.2 mph 19.6 mph N/A   Clear
11:30 AM 80.6 °F 83.9 °F 69.8 °F 70% 29.91 in 10.0 mi SSE 4.6 mph 17.3 mph N/A   Clear
11:50 AM 82.4 °F 86.3 °F 69.8 °F 66% 29.90 in 10.0 mi SSE 5.8 mph 18.4 mph N/A   Clear
12:10 PM 82.4 °F 86.3 °F 69.8 °F 66% 29.89 in 10.0 mi SSE 10.4 mph 16.1 mph N/A   Clear
12:31 PM 84.2 °F 88.4 °F 69.8 °F 62% 29.88 in 10.0 mi SSE 11.5 mph 17.3 mph N/A   Clear
12:51 PM 84.2 °F 88.4 °F 69.8 °F 62% 29.88 in 10.0 mi SSE 10.4 mph - N/A   Clear
1:11 PM 86.0 °F 90.4 °F 69.8 °F 58% 29.87 in 7.0 mi SSE 11.5 mph 17.3 mph N/A   Clear
1:31 PM 86.0 °F 90.4 °F 69.8 °F 58% 29.86 in 5.0 mi SSE 11.5 mph 18.4 mph N/A   Haze
1:51 PM 87.8 °F 92.6 °F 69.8 °F 55% 29.86 in 10.0 mi SSE 13.8 mph 19.6 mph N/A   Scattered Clouds
2:11 PM 86.0 °F 88.2 °F 66.2 °F 51% 29.86 in 10.0 mi South 13.8 mph 19.6 mph N/A   Scattered Clouds
2:31 PM 86.0 °F 88.2 °F 66.2 °F 51% 29.86 in 10.0 mi South 9.2 mph 19.6 mph N/A   Scattered Clouds
2:51 PM 87.8 °F 90.4 °F 66.2 °F 49% 29.86 in 2.5 mi South 10.4 mph 20.7 mph N/A   Haze
3:11 PM 86.0 °F 88.2 °F 66.2 °F 51% 29.85 in 7.0 mi South 11.5 mph 19.6 mph N/A   Scattered Clouds
3:31 PM 87.8 °F 90.4 °F 66.2 °F 49% 29.85 in 10.0 mi South 11.5 mph 23.0 mph N/A   Clear
3:51 PM 87.8 °F 90.4 °F 66.2 °F 49% 29.85 in 10.0 mi SSE 11.5 mph 16.1 mph N/A   Clear
4:10 PM 87.8 °F 90.4 °F 66.2 °F 49% 29.84 in 10.0 mi SSE 12.7 mph - N/A   Clear
4:30 PM 87.8 °F 91.4 °F 68.0 °F 52% 29.85 in 10.0 mi SSE 11.5 mph 16.1 mph N/A   Scattered Clouds
4:50 PM 86.0 °F 88.2 °F 66.2 °F 51% 29.84 in 10.0 mi SSE 12.7 mph 17.3 mph N/A   Scattered Clouds
5:11 PM 84.2 °F 87.3 °F 68.0 °F 58% 29.84 in 10.0 mi SSE 6.9 mph - N/A   Scattered Clouds
5:30 PM 87.8 °F 91.4 °F 68.0 °F 52% 29.84 in 10.0 mi SSE 10.4 mph 17.3 mph N/A   Scattered Clouds
5:51 PM 84.2 °F 87.3 °F 68.0 °F 58% 29.83 in 10.0 mi SSE 11.5 mph 16.1 mph N/A   Scattered Clouds
6:11 PM 84.2 °F 87.3 °F 68.0 °F 58% 29.83 in 10.0 mi SE 10.4 mph 18.4 mph N/A   Clear
6:30 PM 84.2 °F 87.3 °F 68.0 °F 58% 29.82 in 10.0 mi SSE 10.4 mph - N/A   Clear
6:51 PM 82.4 °F 85.4 °F 68.0 °F 62% 29.81 in 10.0 mi Calm Calm - N/A   Clear
7:10 PM 82.4 °F 86.3 °F 69.8 °F 66% 29.81 in 10.0 mi Calm Calm - N/A   Clear
7:31 PM 80.6 °F 83.9 °F 69.8 °F 70% 29.80 in 10.0 mi Calm Calm - N/A   Clear
7:50 PM 80.6 °F 83.2 °F 68.0 °F 65% 29.80 in 10.0 mi Calm Calm - N/A   Clear
8:11 PM 80.6 °F 82.7 °F 66.2 °F 61% 29.80 in 10.0 mi SE 8.1 mph - N/A   Clear
8:31 PM 78.8 °F - 66.2 °F 65% 29.81 in 10.0 mi SE 8.1 mph - N/A   Clear
8:51 PM 78.8 °F - 66.2 °F 65% 29.81 in 10.0 mi SE 8.1 mph - N/A   Clear
9:11 PM 78.8 °F - 66.2 °F 65% 29.80 in 10.0 mi SSE 9.2 mph 17.3 mph N/A   Clear
9:30 PM 78.8 °F - 66.2 °F 65% 29.80 in 10.0 mi SSE 9.2 mph 16.1 mph N/A   Scattered Clouds
9:51 PM 78.8 °F - 66.2 °F 65% 29.80 in 10.0 mi SSE 10.4 mph - N/A   Scattered Clouds
10:11 PM 78.8 °F - 66.2 °F 65% 29.79 in 10.0 mi SSE 11.5 mph - N/A   Clear
10:30 PM 78.8 °F - 66.2 °F 65% 29.79 in 10.0 mi SSE 12.7 mph 19.6 mph N/A   Clear
10:50 PM 78.8 °F - 66.2 °F 65% 29.79 in 10.0 mi SSE 11.5 mph 19.6 mph N/A   Clear
11:11 PM 77.0 °F - 66.2 °F 69% 29.80 in 10.0 mi SSE 9.2 mph 18.4 mph N/A   Clear
11:31 PM 75.2 °F - 66.2 °F 73% 29.80 in 10.0 mi SSE 10.4 mph 17.3 mph N/A   Clear
11:51 PM 75.2 °F - 66.2 °F 73% 29.80 in 10.0 mi SSE 10.4 mph - N/A   Clear